Weather History for Billings, MT

Change the Weather History Date:

Friday, January 4, 2013

  Actual Average Record
Temperature  
Mean Temperature 31 °F 26 °F  
Max Temperature 38 °F 36 °F 56 °F (2012)
Min Temperature 24 °F 17 °F -19 °F (1973)
Degree Days  
Heating Degree Days 34 39  
Month to date heating degree days 154 156  
Since 1 July heating degree days 2695 2977  
Cooling Degree Days 0 0  
Month to date cooling degree days 0 0  
Year to date cooling degree days 0 0  
Moisture  
Dew Point 9 °F    
Average Humidity 44    
Maximum Humidity 50    
Minimum Humidity 37    
Precipitation  
Precipitation 0.00 in 0.01 in 0.18 in (2014)
Month to date precipitation 0.01 0.06  
Year to date precipitation 0.01 0.06  
Snow  
Snow 0.00 in 0.20 in 1.90 in (1977)
Month to date snowfall 0.1 1.1  
Since 1 July snowfall 16.4 21.0  
Snow Depth T in    
Sea Level Pressure  
Sea Level Pressure 30.08 in    
Wind  
Wind Speed 15 mph (SW)    
Max Wind Speed 24 mph    
Max Gust Speed 31 mph    
Visibility 10 miles    
Events      
T = Trace of Precipitation, MM = Missing Value Source: NWS Daily Summary

Daily Weather History Graph

Daily Weather History Graph

Search for Another Location

Airport:

Trip Planner

Search our weather history database for the weather conditions in past years. The results will help you decide how hot, cold, wet, or windy it might be!

Date:

Astronomy

Jan. 04, 2013 Rise Set
Actual Time 7:55 AM MST 4:43 PM MST
Civil Twilight 7:21 AM MST 5:17 PM MST
Nautical Twilight 6:43 AM MST 5:55 PM MST
Astronomical Twilight 6:07 AM MST 6:31 PM MST
Moon No Moon Rise 11:15 AM MST (1/4)
Length of Visible Light 9h 56m
Length of Day
8h 48m
Waning Gibbous, 54% of the Moon is Illuminated
Jan 4
Waning Gibbous
Jan 4
Last Quarter
Jan 11
New
Jan 18
First Quarter
Jan 26
Full

Hourly Weather History & Observations

Time (MST) Temp. Windchill Dew Point Humidity Pressure Visibility Wind Dir Wind Speed Gust Speed Precip Events Conditions
12:53 AM 24.4 °F 8.5 °F 3.0 °F 40% 30.05 in 10.0 mi WSW 25.3 mph - N/A   Clear
1:53 AM 24.1 °F 8.7 °F 3.4 °F 41% 30.04 in 10.0 mi SW 23.0 mph - N/A   Clear
2:53 AM 23.7 °F 9.3 °F 3.0 °F 41% 30.03 in 10.0 mi SW 19.6 mph - N/A   Clear
3:53 AM 25.3 °F 11.8 °F 3.4 °F 39% 30.04 in 10.0 mi WSW 18.4 mph - N/A   Clear
4:53 AM 24.8 °F 11.5 °F 5.0 °F 43% 30.04 in 10.0 mi SW 17.3 mph - N/A   Clear
5:53 AM 25.0 °F 8.9 °F 3.9 °F 41% 30.05 in 10.0 mi WSW 26.5 mph - N/A   Clear
6:53 AM 25.5 °F 12.0 °F 7.0 °F 45% 30.07 in 10.0 mi SW 18.4 mph - N/A   Clear
7:53 AM 25.5 °F 11.3 °F 4.8 °F 41% 30.07 in 10.0 mi WSW 20.7 mph - N/A   Scattered Clouds
8:53 AM 25.9 °F 11.4 °F 4.3 °F 40% 30.08 in 10.0 mi WSW 21.9 mph - N/A   Scattered Clouds
9:23 AM 26.6 °F 13.1 °F 8.6 °F 47% 30.10 in 10.0 mi SW 19.6 mph - N/A   Scattered Clouds
9:53 AM 27.0 °F 13.5 °F 10.0 °F 49% 30.10 in 10.0 mi SW 19.6 mph - N/A   Scattered Clouds
10:53 AM 28.0 °F 14.3 °F 10.0 °F 47% 30.10 in 10.0 mi WSW 21.9 mph - N/A   Partly Cloudy
11:53 AM 30.9 °F 18.1 °F 10.0 °F 42% 30.08 in 10.0 mi WSW 21.9 mph - N/A   Partly Cloudy
12:53 PM 34.0 °F 23.8 °F 12.9 °F 42% 30.05 in 10.0 mi SW 16.1 mph - N/A   Clear
1:53 PM 36.0 °F 26.7 °F 14.0 °F 41% 30.03 in 10.0 mi SW 15.0 mph - N/A   Clear
2:53 PM 37.0 °F 27.7 °F 14.0 °F 39% 30.05 in 10.0 mi SW 16.1 mph - N/A   Clear
3:53 PM 37.0 °F 29.3 °F 15.1 °F 41% 30.06 in 10.0 mi SW 11.5 mph - N/A   Clear
4:53 PM 34.0 °F 25.0 °F 14.0 °F 44% 30.06 in 10.0 mi SW 12.7 mph - N/A   Clear
5:53 PM 30.9 °F 20.2 °F 12.9 °F 47% 30.07 in 10.0 mi SW 15.0 mph - N/A   Clear
6:53 PM 28.9 °F 17.7 °F 12.0 °F 49% 30.07 in 10.0 mi SW 15.0 mph - N/A   Clear
7:53 PM 28.9 °F 17.3 °F 12.0 °F 49% 30.08 in 10.0 mi WSW 16.1 mph - N/A   Clear
8:53 PM 28.0 °F 16.1 °F 12.0 °F 51% 30.07 in 10.0 mi WSW 16.1 mph - N/A   Clear
9:53 PM 28.0 °F 17.5 °F 12.0 °F 51% 30.19 in 10.0 mi SW 12.7 mph - N/A   Clear
10:53 PM 26.1 °F 13.6 °F 10.9 °F 53% 30.21 in 10.0 mi WSW 16.1 mph - N/A   Clear
11:53 PM 28.9 °F 16.9 °F 12.9 °F 51% 30.20 in 10.0 mi WSW 17.3 mph - N/A   Partly Cloudy